Torna al catalogo

COSMOS 1275 DEB

LostPO
NORAD 42160·DEBRIS·🇷🇺 Russia

Lanciato Jun 4, 1981 da Plesetsk Cosmodrome

Loading…

Prossimi Passaggi (prossime 24 ore)

TLE

ObsoletoSource: Space-Track

Epoca: Sep 4, 2022, 00:23 UTC

1 42160U 81053RY  22247.01634367  .00001443  00000-0  57659-3 0  9994
2 42160  82.9185 343.2488 0009045 108.0672 252.1500 14.27849145408846

Traccia COSMOS 1275 DEB in tempo reale con AllMySat

Download on the App Store